QPF
0.00 0.00 0.00 0.00 0.00 0.01 0.01 0.01 0.02 0.03 0.05 0.07 0.06 0.06 0.07 0.07 0.04 0.04 0.04 0.05 0.05 0.06 0.06 0.06 0.08 0.08 0.10 0.09 0.09 0.11 0.12 0.12 0.12 0.12 0.12 0.09 0.06 0.06 0.07 0.08 0.08 0.08 0.07
0.00 0.00 0.00 0.00 0.00 0.01 0.01 0.01 0.02 0.03 0.02 0.04 0.05 0.06 0.06 0.05 0.04 0.04 0.05 0.05 0.06 0.07 0.06 0.07 0.07 0.07 0.09 0.09 0.10 0.12 0.11 0.10 0.11 0.13 0.16 0.13 0.10 0.08 0.05 0.05 0.05 0.05 0.07
0.00 0.00 0.01 0.01 0.00 0.00 0.00 0.01 0.02 0.02 0.02 0.04 0.03 0.03 0.05 0.04 0.04 0.04 0.05 0.05 0.04 0.05 0.06 0.07 0.06 0.06 0.06 0.09 0.11 0.10 0.11 0.11 0.11 0.12 0.16 0.16 0.16 0.13 0.07 0.05 0.05 0.05 0.06
0.00 0.00 0.00 0.00 0.00 0.00 0.00 0.01 0.01 0.02 0.03 0.04 0.03 0.04 0.04 0.05 0.06 0.06 0.04 0.04 0.03 0.02 0.02 0.03 0.04 0.06 0.07 0.09 0.08 0.10 0.11 0.11 0.11 0.12 0.12 0.12 0.12 0.12 0.10 0.07 0.05 0.05 0.05
0.00 0.00 0.00 0.01 0.02 0.01 0.01 0.01 0.01 0.02 0.03 0.04 0.05 0.05 0.05 0.06 0.06 0.06 0.07 0.06 0.04 0.03 0.01 0.02 0.04 0.06 0.06 0.06 0.06 0.08 0.08 0.09 0.10 0.10 0.10 0.10 0.10 0.11 0.11 0.10 0.08 0.06 0.04
0.00 0.00 0.00 0.01 0.01 0.01 0.01 0.02 0.01 0.01 0.02 0.02 0.03 0.04 0.06 0.07 0.06 0.07 0.07 0.06 0.04 0.03 0.02 0.02 0.04 0.06 0.05 0.05 0.04 0.05 0.05 0.07 0.09 0.09 0.08 0.09 0.09 0.10 0.10 0.09 0.09 0.08 0.04
0.00 0.00 0.00 0.01 0.01 0.02 0.01 0.01 0.01 0.02 0.01 0.02 0.02 0.03 0.04 0.05 0.05 0.05 0.05 0.05 0.03 0.03 0.04 0.04 0.05 0.05 0.04 0.04 0.06 0.05 0.05 0.06 0.07 0.07 0.07 0.07 0.06 0.07 0.10 0.10 0.09 0.08 0.06
0.00 0.00 0.00 0.00 0.01 0.01 0.01 0.00 0.01 0.01 0.02 0.03 0.03 0.03 0.04 0.05 0.04 0.05 0.05 0.05 0.03 0.03 0.03 0.05 0.05 0.04 0.05 0.05 0.07 0.05 0.04 0.05 0.05 0.05 0.07 0.06 0.06 0.08 0.10 0.10 0.11 0.11 0.11
0.00 0.00 0.00 0.00 0.00 0.00 0.00 0.01 0.01 0.01 0.02 0.03 0.04 0.04 0.03 0.03 0.04 0.05 0.05 0.04 0.04 0.03 0.02 0.05 0.06 0.06 0.07 0.08 0.08 0.06 0.05 0.06 0.05 0.05 0.07 0.07 0.06 0.06 0.07 0.09 0.10 0.10 0.10
0.00 0.00 0.00 0.00 0.00 0.00 0.00 0.01 0.02 0.02 0.02 0.03 0.03 0.02 0.02 0.02 0.04 0.04 0.05 0.05 0.05 0.04 0.04 0.06 0.06 0.08 0.08 0.08 0.08 0.08 0.07 0.06 0.05 0.05 0.06 0.06 0.05 0.05 0.06 0.08 0.09 0.10 0.10
0.00 0.00 0.00 0.00 0.00 0.00 0.01 0.00 0.01 0.02 0.03 0.03 0.03 0.03 0.03 0.02 0.03 0.04 0.04 0.04 0.05 0.05 0.05 0.06 0.05 0.05 0.05 0.05 0.06 0.05 0.05 0.06 0.05 0.04 0.04 0.05 0.06 0.05 0.05 0.06 0.08 0.08 0.08
0.01 0.01 0.01 0.01 0.00 0.00 0.01 0.01 0.01 0.02 0.02 0.03 0.03 0.03 0.03 0.02 0.03 0.03 0.03 0.03 0.04 0.04 0.04 0.05 0.05 0.05 0.05 0.04 0.03 0.03 0.04 0.06 0.04 0.04 0.05 0.03 0.04 0.05 0.05 0.05 0.05 0.06 0.07
0.00 0.01 0.04 0.03 0.01 0.01 0.01 0.00 0.01 0.02 0.02 0.03 0.02 0.02 0.02 0.02 0.02 0.02 0.02 0.03 0.04 0.04 0.04 0.04 0.05 0.06 0.05 0.04 0.03 0.03 0.03 0.04 0.05 0.05 0.05 0.04 0.04 0.04 0.04 0.04 0.05 0.05 0.06
0.01 0.01 0.02 0.01 0.01 0.01 0.00 0.01 0.02 0.03 0.03 0.02 0.01 0.01 0.02 0.02 0.02 0.02 0.03 0.03 0.04 0.04 0.05 0.06 0.06 0.06 0.05 0.04 0.03 0.03 0.03 0.03 0.03 0.04 0.04 0.04 0.04 0.03 0.04 0.04 0.03 0.04 0.05
0.01 0.01 0.01 0.01 0.01 0.01 0.01 0.02 0.02 0.02 0.02 0.02 0.01 0.02 0.02 0.02 0.03 0.03 0.03 0.03 0.03 0.03 0.05 0.05 0.05 0.05 0.04 0.03 0.04 0.03 0.03 0.03 0.03 0.03 0.03 0.03 0.03 0.03 0.03 0.02 0.03 0.04 0.04
0.01 0.01 0.01 0.01 0.01 0.02 0.02 0.01 0.01 0.01 0.00 0.01 0.01 0.02 0.03 0.04 0.04 0.04 0.03 0.03 0.02 0.02 0.03 0.03 0.03 0.03 0.02 0.02 0.02 0.02 0.03 0.03 0.04 0.04 0.03 0.02 0.03 0.03 0.03 0.02 0.02 0.02 0.03
0.01 0.01 0.02 0.02 0.03 0.05 0.07 0.04 0.02 0.01 0.01 0.01 0.02 0.05 0.06 0.08 0.08 0.08 0.06 0.05 0.04 0.03 0.02 0.02 0.03 0.02 0.02 0.01 0.01 0.01 0.02 0.03 0.03 0.04 0.04 0.03 0.03 0.04 0.04 0.04 0.03 0.02 0.02
0.01 0.02 0.01 0.01 0.03 0.06 0.08 0.07 0.04 0.02 0.01 0.01 0.02 0.03 0.05 0.07 0.08 0.09 0.08 0.06 0.05 0.04 0.02 0.02 0.02 0.03 0.02 0.01 0.02 0.02 0.02 0.02 0.02 0.03 0.04 0.05 0.06 0.06 0.06 0.04 0.02 0.02 0.02
0.01 0.01 0.01 0.01 0.03 0.07 0.12 0.11 0.04 0.02 0.01 0.02 0.03 0.04 0.05 0.05 0.05 0.06 0.07 0.06 0.05 0.04 0.03 0.03 0.03 0.04 0.04 0.03 0.03 0.03 0.03 0.03 0.03 0.04 0.04 0.05 0.04 0.04 0.04 0.03 0.03 0.03 0.04
0.01 0.01 0.01 0.01 0.02 0.03 0.04 0.06 0.05 0.04 0.03 0.03 0.03 0.03 0.04 0.05 0.05 0.05 0.05 0.05 0.05 0.05 0.05 0.05 0.05 0.04 0.04 0.04 0.03 0.03 0.03 0.03 0.02 0.02 0.02 0.02 0.02 0.02 0.03 0.02 0.02 0.03 0.03
0.02 0.02 0.02 0.02 0.02 0.03 0.03 0.04 0.04 0.04 0.03 0.03 0.03 0.03 0.04 0.04 0.04 0.03 0.04 0.05 0.05 0.06 0.07 0.06 0.06 0.04 0.04 0.04 0.05 0.04 0.03 0.03 0.02 0.02 0.02 0.02 0.03 0.03 0.03 0.03 0.02 0.03 0.04
0.02 0.02 0.03 0.03 0.03 0.03 0.03 0.04 0.04 0.05 0.05 0.04 0.03 0.03 0.03 0.03 0.02 0.02 0.03 0.05 0.07 0.07 0.06 0.05 0.05 0.04 0.04 0.04 0.03 0.03 0.03 0.03 0.03 0.02 0.02 0.02 0.04 0.04 0.03 0.03 0.03 0.04 0.04
0.02 0.03 0.02 0.03 0.03 0.04 0.05 0.05 0.06 0.07 0.07 0.07 0.06 0.05 0.04 0.03 0.03 0.03 0.04 0.04 0.05 0.05 0.05 0.04 0.04 0.04 0.03 0.02 0.02 0.02 0.02 0.02 0.02 0.02 0.02 0.02 0.03 0.03 0.03 0.03 0.03 0.03 0.04
0.02 0.02 0.02 0.03 0.03 0.04 0.06 0.07 0.07 0.08 0.08 0.09 0.07 0.06 0.05 0.04 0.04 0.05 0.07 0.09 0.10 0.09 0.06 0.04 0.02 0.02 0.03 0.02 0.02 0.02 0.01 0.01 0.01 0.01 0.01 0.01 0.02 0.02 0.02 0.03 0.04 0.05 0.05
0.02 0.03 0.03 0.03 0.03 0.04 0.04 0.05 0.06 0.07 0.07 0.07 0.07 0.06 0.05 0.05 0.05 0.08 0.11 0.10 0.07 0.05 0.04 0.03 0.02 0.02 0.01 0.01 0.02 0.02 0.01 0.01 0.01 0.01 0.02 0.02 0.01 0.01 0.01 0.02 0.02 0.03 0.03
0.02 0.02 0.02 0.02 0.03 0.05 0.05 0.05 0.06 0.06 0.08 0.09 0.09 0.10 0.10 0.11 0.10 0.10 0.08 0.05 0.04 0.04 0.03 0.02 0.02 0.02 0.02 0.02 0.02 0.02 0.02 0.02 0.02 0.02 0.03 0.04 0.04 0.04 0.03 0.03 0.02 0.02 0.01
MSLP
1010.37 1010.80 1011.25 1011.67 1012.07 1012.43 1012.75 1013.05 1013.33 1013.59 1013.84 1014.06 1014.25 1014.41 1014.52 1014.61 1014.66 1014.70 1014.74 1014.80 1014.88 1014.99 1015.13 1015.31 1015.51 1015.74 1015.98 1016.23 1016.48 1016.71 1016.91 1017.07 1017.17 1017.18 1017.10 1016.92 1016.66 1016.32 1015.93 1015.54 1015.16 1014.84 1014.61
1010.05 1010.58 1011.09 1011.56 1011.97 1012.31 1012.60 1012.86 1013.12 1013.38 1013.65 1013.91 1014.16 1014.36 1014.51 1014.60 1014.63 1014.62 1014.59 1014.58 1014.60 1014.67 1014.80 1014.99 1015.22 1015.49 1015.78 1016.07 1016.35 1016.61 1016.83 1017.01 1017.13 1017.17 1017.13 1017.00 1016.77 1016.45 1016.05 1015.62 1015.19 1014.79 1014.47
1009.62 1010.25 1010.87 1011.41 1011.86 1012.21 1012.49 1012.73 1012.96 1013.21 1013.50 1013.80 1014.09 1014.34 1014.53 1014.62 1014.64 1014.59 1014.50 1014.42 1014.38 1014.40 1014.49 1014.67 1014.91 1015.20 1015.50 1015.81 1016.11 1016.38 1016.61 1016.81 1016.96 1017.05 1017.08 1017.01 1016.85 1016.59 1016.24 1015.82 1015.37 1014.94 1014.55
1009.04 1009.80 1010.54 1011.19 1011.71 1012.11 1012.40 1012.63 1012.85 1013.09 1013.38 1013.70 1014.03 1014.32 1014.53 1014.65 1014.66 1014.58 1014.45 1014.31 1014.20 1014.16 1014.21 1014.35 1014.56 1014.83 1015.13 1015.43 1015.72 1015.99 1016.24 1016.46 1016.65 1016.80 1016.90 1016.93 1016.87 1016.70 1016.43 1016.07 1015.65 1015.21 1014.80
1008.33 1009.21 1010.09 1010.86 1011.49 1011.95 1012.27 1012.51 1012.73 1012.96 1013.25 1013.57 1013.92 1014.23 1014.48 1014.62 1014.63 1014.55 1014.38 1014.19 1014.03 1013.92 1013.91 1013.99 1014.15 1014.38 1014.64 1014.92 1015.19 1015.46 1015.71 1015.96 1016.19 1016.41 1016.60 1016.73 1016.79 1016.74 1016.57 1016.30 1015.94 1015.53 1015.12
1007.49 1008.49 1009.49 1010.39 1011.13 1011.67 1012.04 1012.30 1012.52 1012.74 1013.02 1013.34 1013.70 1014.03 1014.30 1014.47 1014.50 1014.41 1014.24 1014.01 1013.80 1013.63 1013.55 1013.57 1013.67 1013.84 1014.06 1014.30 1014.55 1014.81 1015.06 1015.33 1015.62 1015.91 1016.18 1016.42 1016.59 1016.66 1016.61 1016.44 1016.16 1015.80 1015.41
1006.61 1007.67 1008.77 1009.77 1010.60 1011.22 1011.65 1011.93 1012.15 1012.37 1012.64 1012.96 1013.32 1013.67 1013.97 1014.15 1014.21 1014.14 1013.97 1013.73 1013.48 1013.27 1013.13 1013.08 1013.12 1013.24 1013.41 1013.61 1013.84 1014.09 1014.36 1014.65 1014.98 1015.33 1015.68 1016.01 1016.28 1016.46 1016.52 1016.44 1016.25 1015.96 1015.61
1005.74 1006.82 1007.97 1009.03 1009.93 1010.60 1011.07 1011.38 1011.60 1011.83 1012.09 1012.41 1012.77 1013.14 1013.46 1013.68 1013.78 1013.74 1013.58 1013.34 1013.08 1012.84 1012.65 1012.55 1012.54 1012.61 1012.74 1012.92 1013.14 1013.38 1013.67 1013.99 1014.35 1014.74 1015.15 1015.55 1015.89 1016.16 1016.30 1016.32 1016.20 1015.97 1015.67
1005.00 1006.04 1007.17 1008.24 1009.14 1009.84 1010.32 1010.65 1010.89 1011.12 1011.38 1011.71 1012.09 1012.49 1012.84 1013.10 1013.24 1013.24 1013.11 1012.89 1012.63 1012.37 1012.16 1012.02 1011.98 1012.02 1012.13 1012.30 1012.52 1012.78 1013.09 1013.43 1013.81 1014.24 1014.67 1015.10 1015.49 1015.80 1016.00 1016.08 1016.03 1015.86 1015.61
1004.49 1005.44 1006.48 1007.48 1008.34 1009.01 1009.49 1009.82 1010.08 1010.32 1010.61 1010.96 1011.37 1011.80 1012.19 1012.50 1012.68 1012.73 1012.63 1012.44 1012.19 1011.94 1011.72 1011.57 1011.51 1011.54 1011.66 1011.84 1012.07 1012.36 1012.68 1013.05 1013.44 1013.87 1014.30 1014.73 1015.12 1015.44 1015.66 1015.77 1015.77 1015.66 1015.47
1004.30 1005.10 1005.99 1006.87 1007.63 1008.23 1008.68 1009.00 1009.27 1009.55 1009.87 1010.26 1010.71 1011.18 1011.62 1011.98 1012.21 1012.30 1012.25 1012.09 1011.86 1011.61 1011.40 1011.26 1011.20 1011.24 1011.37 1011.58 1011.85 1012.16 1012.50 1012.88 1013.27 1013.68 1014.08 1014.47 1014.82 1015.11 1015.33 1015.45 1015.48 1015.42 1015.28
1004.47 1005.08 1005.78 1006.48 1007.10 1007.60 1007.99 1008.31 1008.59 1008.90 1009.28 1009.72 1010.22 1010.74 1011.23 1011.63 1011.90 1012.03 1012.01 1011.88 1011.67 1011.45 1011.25 1011.12 1011.08 1011.14 1011.29 1011.53 1011.83 1012.17 1012.53 1012.90 1013.28 1013.64 1013.99 1014.32 1014.60 1014.84 1015.02 1015.13 1015.17 1015.15 1015.07
1004.97 1005.37 1005.86 1006.36 1006.82 1007.21 1007.53 1007.83 1008.13 1008.48 1008.91 1009.41 1009.96 1010.52 1011.05 1011.48 1011.78 1011.93 1011.94 1011.83 1011.65 1011.43 1011.25 1011.13 1011.11 1011.20 1011.38 1011.64 1011.97 1012.32 1012.69 1013.05 1013.39 1013.70 1013.98 1014.22 1014.43 1014.59 1014.72 1014.81 1014.85 1014.86 1014.84
1005.74 1005.95 1006.23 1006.53 1006.82 1007.09 1007.35 1007.63 1007.94 1008.33 1008.80 1009.34 1009.93 1010.53 1011.07 1011.51 1011.83 1011.99 1012.00 1011.90 1011.73 1011.53 1011.36 1011.25 1011.25 1011.35 1011.55 1011.83 1012.17 1012.53 1012.89 1013.23 1013.52 1013.77 1013.97 1014.13 1014.24 1014.33 1014.40 1014.45 1014.50 1014.53 1014.56
1006.69 1006.73 1006.83 1006.96 1007.11 1007.27 1007.47 1007.72 1008.04 1008.45 1008.95 1009.51 1010.11 1010.70 1011.24 1011.67 1011.96 1012.11 1012.12 1012.02 1011.85 1011.65 1011.49 1011.40 1011.40 1011.50 1011.71 1011.99 1012.33 1012.68 1013.02 1013.33 1013.58 1013.77 1013.89 1013.97 1014.00 1014.02 1014.03 1014.04 1014.08 1014.13 1014.19
1007.71 1007.64 1007.60 1007.59 1007.62 1007.71 1007.86 1008.08 1008.40 1008.81 1009.30 1009.85 1010.42 1010.98 1011.47 1011.85 1012.10 1012.22 1012.21 1012.09 1011.92 1011.73 1011.57 1011.48 1011.48 1011.58 1011.77 1012.05 1012.37 1012.70 1013.01 1013.28 1013.49 1013.62 1013.69 1013.70 1013.67 1013.63 1013.59 1013.57 1013.59 1013.65 1013.73
1008.71 1008.57 1008.44 1008.36 1008.32 1008.35 1008.47 1008.67 1008.96 1009.34 1009.79 1010.29 1010.79 1011.27 1011.68 1011.99 1012.17 1012.24 1012.20 1012.07 1011.89 1011.70 1011.55 1011.46 1011.45 1011.54 1011.72 1011.97 1012.26 1012.57 1012.85 1013.08 1013.25 1013.34 1013.37 1013.34 1013.27 1013.18 1013.11 1013.07 1013.07 1013.11 1013.20
1009.61 1009.45 1009.30 1009.19 1009.13 1009.14 1009.23 1009.40 1009.66 1009.98 1010.36 1010.76 1011.16 1011.52 1011.82 1012.03 1012.14 1012.15 1012.07 1011.93 1011.75 1011.58 1011.43 1011.35 1011.34 1011.42 1011.58 1011.79 1012.05 1012.31 1012.56 1012.76 1012.90 1012.97 1012.98 1012.93 1012.84 1012.74 1012.65 1012.58 1012.56 1012.59 1012.65
1010.37 1010.25 1010.12 1010.03 1009.98 1010.00 1010.07 1010.21 1010.41 1010.66 1010.93 1011.21 1011.47 1011.70 1011.88 1011.98 1012.01 1011.97 1011.87 1011.73 1011.57 1011.42 1011.30 1011.23 1011.23 1011.30 1011.43 1011.61 1011.82 1012.04 1012.25 1012.43 1012.55 1012.61 1012.61 1012.57 1012.48 1012.38 1012.28 1012.20 1012.15 1012.14 1012.17
1011.00 1010.93 1010.87 1010.83 1010.82 1010.85 1010.92 1011.03 1011.17 1011.32 1011.48 1011.62 1011.75 1011.84 1011.89 1011.90 1011.86 1011.79 1011.68 1011.56 1011.44 1011.33 1011.25 1011.21 1011.21 1011.27 1011.38 1011.52 1011.69 1011.87 1012.04 1012.18 1012.28 1012.34 1012.35 1012.32 1012.25 1012.16 1012.06 1011.97 1011.89 1011.84 1011.82
1011.48 1011.49 1011.51 1011.53 1011.58 1011.64 1011.71 1011.79 1011.86 1011.93 1011.97 1011.99 1011.99 1011.96 1011.92 1011.85 1011.77 1011.69 1011.60 1011.52 1011.45 1011.40 1011.37 1011.37 1011.39 1011.45 1011.53 1011.63 1011.75 1011.88 1012.00 1012.11 1012.19 1012.24 1012.26 1012.24 1012.19 1012.11 1012.02 1011.92 1011.82 1011.73 1011.65
1011.85 1011.94 1012.03 1012.12 1012.22 1012.30 1012.38 1012.43 1012.45 1012.44 1012.39 1012.31 1012.21 1012.10 1011.99 1011.89 1011.80 1011.73 1011.69 1011.67 1011.67 1011.69 1011.72 1011.76 1011.81 1011.86 1011.92 1011.98 1012.05 1012.12 1012.18 1012.25 1012.30 1012.33 1012.34 1012.33 1012.29 1012.23 1012.14 1012.04 1011.92 1011.80 1011.67
1012.11 1012.27 1012.42 1012.56 1012.69 1012.80 1012.88 1012.90 1012.89 1012.82 1012.71 1012.57 1012.42 1012.26 1012.13 1012.03 1011.96 1011.94 1011.97 1012.02 1012.10 1012.20 1012.29 1012.37 1012.44 1012.49 1012.52 1012.54 1012.55 1012.56 1012.56 1012.56 1012.57 1012.57 1012.57 1012.55 1012.52 1012.46 1012.38 1012.27 1012.14 1011.98 1011.81
1012.30 1012.49 1012.67 1012.84 1012.99 1013.10 1013.17 1013.18 1013.14 1013.05 1012.92 1012.76 1012.59 1012.44 1012.32 1012.25 1012.24 1012.28 1012.38 1012.51 1012.67 1012.84 1012.99 1013.11 1013.20 1013.24 1013.25 1013.22 1013.17 1013.10 1013.04 1012.97 1012.92 1012.88 1012.85 1012.81 1012.77 1012.71 1012.64 1012.53 1012.39 1012.22 1012.02
1012.43 1012.61 1012.79 1012.95 1013.09 1013.19 1013.25 1013.25 1013.21 1013.11 1012.98 1012.84 1012.69 1012.58 1012.50 1012.49 1012.54 1012.66 1012.83 1013.04 1013.26 1013.49 1013.68 1013.84 1013.93 1013.97 1013.95 1013.88 1013.77 1013.64 1013.51 1013.38 1013.26 1013.17 1013.10 1013.04 1012.98 1012.92 1012.84 1012.74 1012.60 1012.43 1012.23
1012.52 1012.65 1012.79 1012.91 1013.02 1013.09 1013.13 1013.13 1013.08 1013.00 1012.90 1012.79 1012.69 1012.63 1012.62 1012.67 1012.79 1012.97 1013.20 1013.46 1013.74 1014.00 1014.23 1014.40 1014.50 1014.53 1014.49 1014.39 1014.24 1014.05 1013.86 1013.67 1013.51 1013.36 1013.25 1013.16 1013.09 1013.03 1012.95 1012.86 1012.73 1012.57 1012.38
Thickness
5842 5840 5835 5831 5823 5816 5810 5804 5799 5796 5791 5786 5782 5779 5776 5777 5776 5774 5771 5769 5767 5765 5763 5763 5762 5760 5758 5757 5756 5755 5753 5752 5754 5750 5748 5751 5755 5756 5756 5755 5755 5754 5753
5842 5839 5836 5832 5826 5818 5812 5807 5802 5798 5794 5790 5786 5783 5781 5779 5778 5776 5773 5770 5768 5766 5765 5763 5761 5760 5758 5756 5755 5754 5751 5751 5752 5747 5742 5739 5743 5748 5754 5753 5752 5752 5752
5843 5838 5835 5833 5829 5822 5816 5812 5806 5801 5797 5794 5790 5787 5783 5780 5777 5774 5772 5771 5769 5767 5765 5763 5761 5760 5758 5756 5755 5753 5750 5747 5749 5750 5744 5737 5733 5737 5745 5749 5750 5750 5749
5850 5843 5838 5834 5831 5827 5823 5817 5811 5805 5800 5796 5791 5786 5780 5775 5775 5775 5773 5772 5770 5768 5766 5764 5762 5760 5758 5756 5755 5754 5752 5749 5745 5747 5749 5747 5744 5735 5733 5740 5744 5747 5746
5856 5848 5843 5839 5837 5833 5827 5820 5813 5807 5802 5798 5793 5787 5783 5780 5778 5777 5774 5771 5770 5768 5766 5764 5762 5760 5757 5756 5754 5753 5751 5749 5746 5744 5745 5744 5744 5743 5735 5731 5735 5739 5742
5859 5853 5849 5844 5839 5836 5829 5821 5813 5807 5803 5799 5794 5789 5784 5781 5777 5774 5771 5770 5769 5768 5766 5764 5762 5760 5757 5756 5754 5753 5751 5748 5747 5746 5745 5742 5740 5738 5736 5732 5731 5732 5736
5859 5853 5847 5842 5837 5833 5828 5822 5814 5807 5804 5800 5795 5791 5786 5782 5777 5775 5773 5771 5769 5767 5766 5765 5762 5760 5758 5756 5754 5752 5750 5748 5746 5744 5744 5743 5742 5742 5739 5734 5730 5730 5732
5859 5853 5849 5843 5838 5834 5829 5822 5815 5809 5805 5800 5796 5793 5789 5784 5781 5778 5775 5773 5771 5769 5768 5766 5763 5760 5758 5757 5754 5752 5750 5749 5746 5745 5744 5742 5742 5742 5739 5735 5730 5725 5725
5857 5853 5848 5844 5839 5833 5828 5823 5816 5810 5806 5802 5797 5793 5789 5786 5782 5780 5777 5774 5772 5770 5768 5765 5762 5759 5757 5755 5754 5751 5749 5748 5746 5744 5743 5741 5741 5741 5740 5737 5733 5726 5719
5856 5852 5848 5844 5839 5835 5829 5824 5817 5810 5806 5802 5798 5794 5790 5786 5783 5780 5776 5774 5772 5770 5767 5764 5761 5758 5756 5754 5752 5749 5747 5745 5743 5742 5739 5738 5737 5737 5736 5734 5732 5730 5724
5850 5848 5846 5842 5839 5834 5828 5822 5816 5810 5805 5801 5798 5794 5790 5787 5783 5779 5777 5774 5771 5768 5765 5763 5760 5757 5754 5752 5750 5747 5745 5742 5740 5738 5737 5734 5733 5732 5731 5730 5729 5726 5723
5844 5843 5840 5837 5834 5831 5826 5820 5815 5809 5805 5802 5798 5793 5789 5786 5782 5779 5777 5774 5771 5768 5765 5762 5759 5756 5753 5750 5747 5744 5742 5739 5736 5735 5733 5730 5730 5728 5727 5725 5724 5722 5720
5835 5834 5830 5827 5827 5825 5822 5818 5814 5809 5805 5801 5796 5791 5788 5784 5781 5778 5776 5774 5770 5767 5764 5761 5757 5754 5751 5748 5745 5742 5739 5737 5735 5732 5729 5727 5725 5723 5722 5721 5719 5717 5716
5827 5826 5822 5821 5821 5820 5817 5814 5811 5808 5804 5799 5794 5789 5787 5784 5781 5778 5775 5771 5768 5764 5761 5758 5755 5752 5748 5745 5743 5740 5737 5734 5732 5729 5727 5724 5721 5719 5718 5716 5714 5712 5710
5818 5818 5816 5815 5815 5813 5811 5809 5806 5804 5802 5796 5791 5787 5785 5782 5779 5775 5771 5768 5765 5761 5758 5754 5751 5748 5745 5742 5739 5736 5734 5731 5728 5726 5724 5721 5718 5716 5713 5712 5709 5706 5703
5809 5809 5809 5807 5806 5805 5804 5803 5800 5798 5796 5791 5787 5785 5781 5777 5774 5771 5768 5763 5760 5757 5754 5750 5746 5744 5742 5738 5735 5732 5730 5727 5724 5721 5720 5717 5714 5711 5708 5706 5703 5701 5697
5802 5801 5801 5801 5799 5797 5797 5794 5795 5793 5789 5785 5782 5780 5776 5771 5769 5767 5763 5759 5755 5752 5749 5745 5742 5738 5735 5732 5730 5727 5725 5723 5720 5717 5714 5713 5711 5706 5703 5700 5697 5694 5692
5794 5795 5795 5795 5795 5794 5791 5788 5788 5785 5782 5778 5776 5774 5770 5766 5763 5760 5756 5754 5751 5747 5743 5740 5737 5733 5729 5725 5723 5720 5720 5718 5715 5712 5709 5705 5702 5700 5697 5695 5693 5689 5686
5789 5789 5791 5791 5789 5787 5785 5781 5779 5777 5775 5772 5770 5769 5766 5761 5758 5754 5751 5748 5745 5742 5739 5736 5732 5728 5723 5720 5717 5713 5713 5711 5709 5707 5704 5700 5696 5693 5691 5689 5686 5683 5680
5782 5782 5784 5784 5781 5780 5778 5774 5771 5769 5767 5766 5765 5763 5761 5757 5753 5749 5746 5743 5740 5736 5733 5729 5727 5723 5719 5715 5712 5707 5707 5705 5703 5700 5697 5694 5690 5687 5684 5682 5679 5675 5673
5773 5774 5774 5772 5772 5772 5770 5766 5764 5762 5762 5762 5760 5758 5755 5751 5748 5744 5740 5737 5733 5729 5725 5722 5719 5717 5713 5709 5705 5701 5699 5699 5697 5694 5691 5687 5683 5680 5677 5674 5672 5669 5666
5760 5762 5761 5761 5763 5763 5761 5757 5755 5757 5756 5754 5752 5750 5748 5744 5741 5737 5733 5730 5727 5722 5718 5715 5712 5710 5707 5702 5698 5694 5692 5690 5689 5687 5684 5679 5675 5672 5669 5667 5665 5662 5659
5748 5749 5749 5749 5752 5753 5752 5748 5748 5749 5747 5745 5743 5741 5740 5736 5733 5729 5725 5722 5719 5717 5714 5710 5707 5704 5700 5696 5691 5687 5684 5682 5680 5678 5674 5670 5667 5664 5662 5659 5657 5654 5652
5735 5737 5737 5736 5737 5740 5741 5741 5741 5741 5738 5735 5733 5731 5729 5725 5723 5721 5718 5715 5712 5710 5708 5705 5702 5698 5694 5689 5684 5681 5677 5673 5670 5668 5665 5662 5659 5657 5654 5652 5649 5647 5645
5722 5723 5723 5723 5725 5728 5729 5731 5731 5730 5727 5725 5723 5721 5719 5716 5713 5709 5706 5705 5702 5701 5699 5697 5695 5690 5686 5681 5677 5674 5671 5668 5664 5660 5658 5655 5652 5650 5648 5645 5643 5640 5637
5710 5710 5711 5711 5713 5715 5717 5719 5719 5719 5716 5713 5712 5711 5709 5706 5703 5698 5692 5690 5690 5688 5686 5683 5680 5679 5675 5672 5668 5665 5662 5659 5655 5652 5651 5648 5645 5642 5640 5637 5634 5631 5629